Regional Weather Roundup
Issued by NWS

Home | Current Version | Previous Version | Graphics & Text | Print | Product List | Glossary Off
Versions: 1 2 3 4 5 6 7 8 9 10 11 12 13 14 15 16 17 18 19 20 21 22 23 24 25 26 27 28 29 30 31 32 33 34 35 36 37 38 39 40 41 42 43 44 45 46 47 48 49 50

000
ASUS43 KTOP 242159
RWRKS

WEATHER ROUNDUP FOR KANSAS
NATIONAL WEATHER SERVICE GOODLAND KS
400 PM CST SAT JAN 24 2015

NOTE:  "FAIR" INDICATES FEW OR NO CLOUDS BELOW 12,000 FEET WITH NO
SIGNIFICANT WEATHER AND/OR OBSTRUCTIONS TO VISIBILITY.

KSZ001>006-013>018-027>032-041>047-242300-
NORTHWEST KANSAS

CITY           SKY/WX    TMP DP  RH WIND       PRES   REMARKS
GOODLAND       CLOUDY    53  22  29 NW18G28   29.92R
HAYS           PTSUNNY   61  25  25 W18G24    29.84S
HILL CITY      PTSUNNY   58  22  24 NW17      29.84R
RUSSELL        PTSUNNY   61  25  25 W20       29.81S
$$

KSZ061>065-074>080-084>089-242300-
SOUTHWEST KANSAS

CITY           SKY/WX    TMP DP  RH WIND       PRES   REMARKS
DODGE CITY     PTSUNNY   61  24  24 W20       29.88F
ELKHART          N/A    N/A N/A N/A MISG        N/A
GARDEN CITY    PTSUNNY   59  25  27 W16       29.89S
GREAT BEND     PTSUNNY   61  27  27 W22       29.85S
LIBERAL        PTSUNNY   55  27  33 SW16      29.93F
$$

KSZ066>073-081>083-090>101-242300-
SOUTHEAST KANSAS

CITY           SKY/WX    TMP DP  RH WIND       PRES   REMARKS
CHANUTE        MOSUNNY   61  28  28 W16G24    29.84F
COFFEYVILLE    SUNNY     60  30  32 SW15      29.88F
HUTCHINSON     CLOUDY    62  27  26 W17       29.84F
MEDICINE LODGE   N/A     64  25  22 W9G20     29.87F
NEWTON         CLOUDY    61  27  27 W16G23    29.85F
PARSONS        SUNNY     62  30  29 W13G22    29.88F
WICHITA INTL   PTSUNNY   63  26  24 W16       29.84F
WICHITA JABRA  PTSUNNY   59  27  29 W14       29.84F
WINFIELD       MOSUNNY   61  29  29 SW15      29.88F
$$

KSZ007>012-019>026-033>040-048>060-102>105-242300-
NORTHEAST KANSAS

CITY           SKY/WX    TMP DP  RH WIND       PRES   REMARKS
CONCORDIA      PTSUNNY   58  26  29 W16       29.76F
EMPORIA        PTSUNNY   61  27  27 W12G22    29.80F
LAWRENCE       CLOUDY    57  28  33 W15       29.76F
MANHATTAN      PTSUNNY   60  28  29 W12       29.77F
OLATHE IND     CLOUDY    56  29  35 SW17      29.78F
OLATHE EXE     PTSUNNY   57  29  34 W12       29.76F
SALINA         PTSUNNY   61  27  27 W17G26    29.80F
TOPEKA BILLARD PTSUNNY   57  28  33 W14       29.77F
TOPEKA FORBES  CLOUDY    59  28  30 W15       29.77F
$$


USA.gov is the U.S. government's official web portal to all federal, state and local government web resources and services.